Location: Sungai Bunut
(2.6333°N, 113.7333°E)
Time: 06:58:15
(UTC+00:00)

Vanguard 2 Rocket - Pass Details

Date: 09 December 2023
Orbit: 554 x 3310 km, 32.9° (Epoch: 25 February)

Event Time Altitude Azimuth Distance (km) Brightness Sun altitude
Rises 14:17:05 0° 300° (WNW) 6,838 11.5 -54.6°
Reaches altitude 10° 14:22:14 10° 297° (WNW) 5,495 11.0 -55.6°
Enters shadow 14:29:18 29° 289° (WNW) 3,582 9.9 -56.9°
